User: anonymous   Login
Location: Unspecified
(0.0000°N, 0.0000°E)
Time: 04:30:05
(UTC+00:00)
Language:

TBA - TO BE ASSIGNED - Orbit

View from above orbital plane
View from above orbital plane
View from above satellite
View from above satellite

Ground track
Ground track

The orbit is defined by the following mean orbital elements,

1 67671U          26145.33742103 +.00000000 +00000-0 +42572-3 0 00004
2 67671  97.2848 178.6607 0000759 101.7439 258.3889 15.33451509    07
Epoch (UTC): 25 May 2026 08:05:53
Eccentricity: 0.0000759
inclination: 97.2848°
perigee height: 465 km
apogee height: 466 km
right ascension of ascending node: 178.6607°
argument of perigee: 101.7439°
revolutions per day: 15.33451509
mean anomaly at epoch: 258.3889°

The dashed part of the orbit path shows where the satellite is in the earth's shadow,  

DLR